Regional Weather Roundup
Issued by NWS

Home | Current Version | Previous Version | Text Only | Print | Product List | Glossary Off
Versions: 1 2 3 4 5 6 7 8 9 10 11 12 13 14 15 16 17 18 19 20 21 22 23 24 25 26 27 28 29 30 31 32 33 34 35 36 37 38 39 40 41 42 43 44 45 46 47 48 49 50

467
ASUS43 KMKX 041211
RWRWI

WISCONSIN REGIONAL WEATHER ROUNDUP
NATIONAL WEATHER SERVICE MILWAUKEE/SULLIVAN WI
700 AM CDT WED MAY 04 2016

NOTE: "FAIR" INDICATES FEW OR NO CLOUDS BELOW 12,000 FEET WITH NO
SIGNIFICANT WEATHER AND/OR OBSTRUCTIONS TO VISIBILITY.

WIZ001-002-006>008-014>016-023>028-041300-
NORTHWEST WISCONSIN

CITY           SKY/WX    TMP DP  RH WIND       PRES   REMARKS
SUPERIOR ARPT  SUNNY     44  33  65 N5        29.96R
6HR MIN TEMP:  40; 6HR MAX TEMP:  49;

ASHLAND        SUNNY     43  34  70 NW8       29.91R
6HR MIN TEMP:  32; 6HR MAX TEMP:  43;

HAYWARD        SUNNY     34  31  88 CALM      29.91R
6HR MIN TEMP:  30; 6HR MAX TEMP:  45;

SIREN          SUNNY     39  32  77 CALM      29.94R
6HR MIN TEMP:  32; 6HR MAX TEMP:  49;

CUMBERLAND     SUNNY     41  32  70 N7        29.93R
RICE LAKE      SUNNY     43  32  65 NW6       29.93R
6HR MIN TEMP:  40; 6HR MAX TEMP:  49;

CHETEK         SUNNY     43  34  71 N5        29.91R
6HR MIN TEMP:  39; 6HR MAX TEMP:  49;

LADYSMITH      SUNNY     41  34  76 NW6       29.90R
6HR MIN TEMP:  39; 6HR MAX TEMP:  46;

EAU CLAIRE     SUNNY     44  34  67 NW8       29.90R
6HR MIN TEMP:  39; 6HR MAX TEMP:  50;

MENOMONIE      SUNNY     44  33  67 NW7       29.91R
NEW RICHMOND   SUNNY     44  33  65 NW7       29.94R
6HR MIN TEMP:  39; 6HR MAX TEMP:  51;

OSCEOLA        SUNNY     43  34  70 CALM      29.98R
6HR MIN TEMP:  41; 6HR MAX TEMP:  53;

$$

WIZ003>005-009-010-017-018-041300-
NORTH CENTRAL WISCONSIN

CITY           SKY/WX    TMP DP  RH WIND       PRES   REMARKS
MANITOWISH WTR SUNNY     39  35  85 N7        29.84R WCI  34
6HR MIN TEMP:  38; 6HR MAX TEMP:  41;

ARBOR VITAE    SUNNY     39  34  81 N10G20    29.83R WCI  32
6HR MIN TEMP:  39; 6HR MAX TEMP:  42;

WOODRUFF       SUNNY     39  34  81 N10G20    29.83R WCI  32
6HR MIN TEMP:  39; 6HR MAX TEMP:  42;

RHINELANDER    PTSUNNY   40  33  76 N10G18    29.82R WCI  33
6HR MIN TEMP:  39; 6HR MAX TEMP:  42; 6HR PCP: TRACE;

EAGLE RIVER    CLOUDY    38  32  79 N15       29.82R WCI  29
LAND O LAKES   CLOUDY    38  34  85 N15G21    29.83R WCI  29
6HR MIN TEMP:  37; 6HR MAX TEMP:  41;

PHILLIPS       SUNNY     39  34  81 N6        29.85R WCI  35
6HR MIN TEMP:  37; 6HR MAX TEMP:  44;

TOMAHAWK       MOSUNNY   39  34  82 N9        29.83R WCI  33
6HR MIN TEMP:  36; 6HR MAX TEMP:  41;

MEDFORD        SUNNY     39  36  88 NW10      29.84R WCI  32
6HR MIN TEMP:  35; 6HR MAX TEMP:  42;

MERRILL        CLOUDY    39  37  93 NW6       29.82S WCI  35
$$

WIZ029-030-035-036-043>047-041300-
CENTRAL WISCONSIN

CITY           SKY/WX    TMP DP  RH WIND       PRES   REMARKS
WAUSAU         PTSUNNY   42  36  79 NW7       29.80R
6HR MIN TEMP:  41; 6HR MAX TEMP:  45;

MOSINEE        MOSUNNY   39  37  93 NW12      29.82R WCI  32
MARSHFIELD     MOSUNNY   41  36  82 NW10      29.83R
6HR MIN TEMP:  38; 6HR MAX TEMP:  46; 6HR PCP: TRACE;

STEVENS POINT  CLOUDY    40  36  84 NW6       29.82R
6HR MIN TEMP:  37; 6HR MAX TEMP:  41;

WAUPACA        MOSUNNY   43  37  79 NW8       29.80R
6HR MIN TEMP:  42; 6HR MAX TEMP:  46;

WAUTOMA        MOSUNNY   43  36  76 NW10      29.81R
6HR MIN TEMP:  41; 6HR MAX TEMP:  46; 6HR PCP:  0.01;

WISC RAPIDS    CLOUDY    42  35  76 N10       29.84R
6HR MIN TEMP:  40; 6HR MAX TEMP:  44;

CAMP DOUGLAS   MOSUNNY   41  41 100 NW8       29.84R
$$

WIZ011>013-019>022-031-037>040-048>050-041300-
NORTHEAST WISCONSIN

CITY           SKY/WX    TMP DP  RH WIND       PRES   REMARKS
ANTIGO         CLOUDY    40  35  81 N16G25    29.79R WCI  31
6HR MIN TEMP:  37; 6HR MAX TEMP:  41;

SHAWANO        MOSUNNY   44  38  79 N8        29.78R
6HR MIN TEMP:  40; 6HR MAX TEMP:  48;

OCONTO         CLOUDY    43  38  82 N9        29.76R
6HR MIN TEMP:  40; 6HR MAX TEMP:  46;

STURGEON BAY   CLOUDY    43  36  75 N16G23    29.76R
6HR MIN TEMP:  39; 6HR MAX TEMP:  45;

GREEN BAY      CLOUDY    43  36  76 N12       29.76R
6HR MIN TEMP:  41; 6HR MAX TEMP:  48; 6HR PCP: TRACE;

MANITOWOC      MOSUNNY   44  36  73 N21G31    29.73R
6HR MIN TEMP:  42; 6HR MAX TEMP:  49;

APPLETON       PTSUNNY   41  34  75 N10G17    29.76R
CLINTONVILLE   PTSUNNY   43  36  75 NW7       29.78S
OSHKOSH        CLOUDY    43  36  76 N12       29.77S
6HR MIN TEMP:  41; 6HR MAX TEMP:  47;

$$

WIZ032>034-041-042-053>061-041300-
SOUTHWEST WISCONSIN

CITY           SKY/WX    TMP DP  RH WIND       PRES   REMARKS
LA CROSSE      SUNNY     46  38  73 N12       29.88R
6HR MIN TEMP:  43; 6HR MAX TEMP:  49;

SPARTA         SUNNY     42  39  91 CALM      29.87S
6HR MIN TEMP:  37; 6HR MAX TEMP:  44; 6HR PCP:  0.01;

VIROQUA        SUNNY     42  38  87 N9        29.85R
6HR MIN TEMP:  41; 6HR MAX TEMP:  46;

BOSCOBEL       MOSUNNY   47  40  76 N9        29.85R
6HR MIN TEMP:  42; 6HR MAX TEMP:  48;

PRAIRIE DU CHI MOSUNNY   47  38  71 N7        29.86R
6HR MIN TEMP:  46; 6HR MAX TEMP:  48;

PLATTEVILLE    SUNNY     46  44  94 N12       29.81R
6HR MIN TEMP:  44; 6HR MAX TEMP:  48;

$$

WIZ056-057-062-063-064-067-068-041300-
SOUTH CENTRAL WISCONSIN

CITY           SKY/WX    TMP DP  RH WIND       PRES   REMARKS
REEDSBURG      SUNNY     43  39  85 N9        29.82R
6HR MIN TEMP:  43; 6HR MAX TEMP:  46;

BARABOO/DELLS  SUNNY     43  38  82 N9        29.81R
6HR MIN TEMP:  43; 6HR MAX TEMP:  46;

LONE ROCK      SUNNY     46  38  73 N8        29.84R
6HR MIN TEMP:  46; 6HR MAX TEMP:  50; 6HR PCP: TRACE;

MINERAL POINT  MOSUNNY   45  43  93 N13G18    29.81R
MADISON        MOSUNNY   44  39  82 N13G23    29.78R
6HR MIN TEMP:  43; 6HR MAX TEMP:  47;

MIDDLETON      PTSUNNY   46  40  81 N16       29.79R
6HR MIN TEMP:  45; 6HR MAX TEMP:  47; 6HR PCP:  0.01;

WATERTOWN      PTSUNNY   43  38  84 N16G22    29.76R
6HR MIN TEMP:  42; 6HR MAX TEMP:  47;

MONROE         SUNNY     45  41  87 N14G20    29.77R
JANESVILLE     MOSUNNY   46  45  93 N12       29.75R
$$

WIZ051-052-058>065-066-070>072-041300-
SOUTHEAST WISCONSIN

CITY           SKY/WX    TMP DP  RH WIND       PRES   REMARKS
MILWAUKEE      PTSUNNY   46  38  73 NW18G24   29.72R
6HR MIN TEMP:  43; 6HR MAX TEMP:  50; 6HR PCP: TRACE;

WAUKESHA       MOSUNNY   43  37  81 NW17      29.75R
MILWAUKEE/TIMM MOSUNNY   43  34  70 N16G23    29.73R
RACINE         CLOUDY    45  38  76 N15G26    29.73R
6HR MIN TEMP:  43; 6HR MAX TEMP:  50; 6HR PCP:  0.04;

BURLINGTON     PTSUNNY   44  40  85 N15G21    29.73R
6HR MIN TEMP:  44; 6HR MAX TEMP:  48;

KENOSHA        CLOUDY    46  41  82 N7        29.71R
6HR MIN TEMP:  44; 6HR MAX TEMP:  52; 6HR PCP:  0.13;

FOND DU LAC    CLOUDY    43  36  76 N15G24    29.77R
6HR MIN TEMP:  43; 6HR MAX TEMP:  48;

SHEBOYGAN      CLOUDY    43  36  76 N16G22    29.74R
6HR MIN TEMP:  41; 6HR MAX TEMP:  49;

WEST BEND      CLOUDY    41  36  81 N12G26    29.75R
JUNEAU         MOSUNNY   41  37  84 N12       29.77R
6HR MIN TEMP:  40; 6HR MAX TEMP:  46;

$$

LSZ147-162-041300-
LAKE SUPERIOR

STATION/POSITION TIME  TEMP    WIND        PRES    WAVE
                       AIR SEA DIR/SP/G            HT/PER
                 (UTC) (F)     (DEG/KT/KT) (MB)    (FT/S)
W MID LAKE BUOY  1150   40 37   10/ 10/ 12 1012.8R   1/ 3
DEVILS ISLAND    1200   42     360/ 14/ 15 1013.7R
SAXON HARBOR     1100   42     340/ 10/ 12 1011.5R
$$

LMZ867-665-643>646-041300-
LAKE MICHIGAN

STATION/POSITION TIME  TEMP    WIND        PRES    WAVE
                       AIR SEA DIR/SP/G            HT/PER
                 (UTC) (F)     (DEG/KT/KT) (MB)    (FT/S)
CHAMBERS ISLAND  1100   42     340/ 16/ 20 1007.1R
N MID LAKE BUOY  1150   39 38  320/ 19/ 23 1005.8R   4/ 5
NORTHPORT PIER   1200   40     340/ 23     1007.1R
ALGOMA LAKESHORE C1F1C2F2C3F3C4F4C5F5C6F6C7F7C8M1C9M2Ca!



USA.gov is the U.S. government's official web portal to all federal, state and local government web resources and services.